Location: Zagreb
(45.8000°N, 16.0000°E)
Time: 01:52:46
(UTC+01:00)

SR - Pass Details

Date: 18 August 2020
Orbit: 576 x 879 km, 66.7° (Epoch: 15 January)

Event Time Altitude Azimuth Distance (km) Brightness Sun altitude
Rises 19:11:28 0° 165° (SSE) 2,949 ? 7.1°
Reaches altitude 10° 19:14:41 10° 142° (SE) 1,990 ? 6.6°
Maximum altitude 19:17:08 15° 108° (ESE) 1,669 ? 6.1°
Drops below altitude 10° 19:19:32 10° 74° (ENE) 1,933 ? 5.7°
Sets 19:22:35 0° 51° (NE) 2,811 ? 5.2°
